Location: Wells
(51.2093°N, 2.6446°W)
Time: 11:18:07
(UTC+01:00)

LilacSat-2 - Pass Details

Date: 15 March 2026
Orbit: 412 x 424 km, 97.5° (Epoch: 20 April)

Event Time Altitude Azimuth Distance (km) Brightness Sun altitude
Rises 18:58:48 0° 160° (SSE) 2,392 ? -7.6°
Reaches altitude 10° 19:00:48 10° 158° (SSE) 1,531 ? -8.0°
Maximum altitude 19:04:04 70° 75° (ENE) 464 ? -8.5°
Drops below altitude 10° 19:07:22 10° 351° (N) 1,545 ? -9.0°
Sets 19:09:23 0° 349° (NNW) 2,417 ? -9.3°
